This is the latest recevied weather packets stored in our database for station/object W8AN. If no packets are shown the sender has not sent any weather packets the latest 10 day(s).
| Time | Temp. | Humidity | Pressure | Rain* | Wind** | Luminosity | Snow |
|---|---|---|---|---|---|---|---|
| 1777918052 | 22.22° C | 45% | 4258.9 hPa | 0 mm | - | 719 W/m² | - |
| 1777917750 | 22.22° C | 42% | 4259.1 hPa | 0 mm | - | 713 W/m² | - |
| 1777917448 | 22.78° C | 41% | 4259.2 hPa | 0 mm | - | 728 W/m² | - |
| 1777917144 | 22.78° C | 44% | 4259.2 hPa | 0 mm | - | 722 W/m² | - |
| 1777916842 | 22.22° C | 45% | 4259.1 hPa | 0 mm | - | 721 W/m² | - |
| 1777916540 | 22.22° C | 46% | 4259.2 hPa | 0 mm | - | 726 W/m² | - |
| 1777916236 | 21.67° C | 46% | 4259.3 hPa | 0 mm | - | 730 W/m² | - |
| 1777915933 | 22.22° C | 46% | 4259.4 hPa | 0 mm | - | 727 W/m² | - |
| 1777915630 | 21.67° C | 48% | 4259.5 hPa | 0 mm | - | 709 W/m² | - |
| 1777915326 | 21.67° C | 49% | 4259.4 hPa | 0 mm | - | 697 W/m² | - |
| 1777915023 | 21.67° C | 47% | 4259.4 hPa | 0 mm | - | 727 W/m² | - |
| 1777914720 | 21.67° C | 48% | 4259.6 hPa | 0 mm | - | 738 W/m² | - |
| 1777914416 | 21.11° C | 51% | 4259.9 hPa | 0 mm | - | 740 W/m² | - |
| 1777914114 | 21.67° C | 50% | 4259.9 hPa | 0 mm | - | 741 W/m² | - |
| 1777913810 | 21.11° C | 50% | 4260 hPa | 0 mm | - | 739 W/m² | - |
| 1777913506 | 20.56° C | 52% | 4260.3 hPa | 0 mm | - | 740 W/m² | - |
| 1777913203 | 20.56° C | 52% | 4260 hPa | 0 mm | - | 745 W/m² | - |
| 1777912899 | 20.56° C | 51% | 4260.4 hPa | 0 mm | - | 742 W/m² | - |
| 1777912596 | 20.56° C | 52% | 4260.1 hPa | 0 mm | - | 747 W/m² | - |
| 1777912292 | 20.56° C | 50% | 4260.3 hPa | 0 mm | - | 754 W/m² | - |
| 1777911988 | 20.56° C | 51% | 4260.4 hPa | 0 mm | - | 763 W/m² | - |
| 1777911684 | 20.56° C | 51% | 4260.4 hPa | 0 mm | - | 763 W/m² | - |
| 1777911381 | 20° C | 52% | 4260.5 hPa | 0 mm | - | 760 W/m² | - |
| 1777911079 | 20° C | 52% | 4260.5 hPa | 0 mm | - | 755 W/m² | - |
| 1777910776 | 20° C | 52% | 4260.6 hPa | 0 mm | - | 749 W/m² | - |
* Rain latest hour (hover to see other rain measurements)
** Current wind speed in m/s (hover to see current wind gust speed)